Location: Wald
(31.7579°N, 86.6655°W)
Time: 12:08:53
(UTC+00:00)

H-2A R/B - Pass Details

Date: 14 July 2020
Orbit: 577 x 656 km, 98.5° (Epoch: 09 August)

Event Time Altitude Azimuth Distance (km) Brightness Sun altitude
Exits shadow 10:05:22 - 197° (SSW) 2,477 4.7 -9.4°
Reaches altitude 10° 10:06:39 10° 205° (SSW) 2,026 4.2 -9.2°
Maximum altitude 10:10:21 26° 262° (W) 1,238 3.1 -8.5°
Drops below altitude 10° 10:14:01 10° 320° (NW) 1,998 4.6 -7.8°
Sets 10:16:29 0° 333° (NNW) 2,894 5.6 -7.4°
